COSMOS 252 DEB, 19294

Orbit data source: Space-Track

COSMOS 252 DEB, 19294 is space debris in LEO originally from a launch on Fri, 01 Nov 1968 UTC launched from the Tyuratam Missile And Space Complex (TTMTR). Debris objects in space refer to the collection of defunct objects orbiting the Earth. Examples of debris include non-operational satellites, rocket bodies, and fragments generated from explosions, collisions, or faulty payload assembly.

Loading next visibility...
Identifier
19294, 1968-097EE
Orbit
LEO
Country
Flag of CISCIS
Related business
Manufacturer
Unknown
Mission
Spacecraft
Bus & Motor
Unknown
Mass
Unknown
Launch date (UTC)
1968-11-01 (58 years ago)
Launch vehicle
Unknown
Launch site
Tyuratam Missile And Space Complex (TTMTR)
Object type
Payload
Rocket body
Debris
Shape & HBR
Unknown shape, 0.1 m
Radar Cross Section
Medium (>0.1 m² and <1 m²)

Expand to show TLE details & history
Last TLE update: 22 hours ago

TLE from 22 hours ago
0 COSMOS 252 DEB
1 19294U 68097EE  26236.19700638  .00001036  00000-0  11299-2 0  9992
2 19294  62.2404 158.4495 0622546 334.6697  22.4938 13.14357589814214
Epoch: 2026-08-24T04:43Z
TLE epoch observation values (Epoch: 2026-08-24T04:43:41.351Z)
Latitude
-0.00007°
Longitude
115.045°
Altitude
776.436 km
Speed
7.676 km/s
True Right ascension
10h 33m 47s
True Declination
0° 00' 00"
Sunlit
Object was in daylight at epoch
Visualization orbit readout
Latitude
Unknown
Longitude
Unknown
Altitude
Unknown
Speed
Unknown
Apparent Right ascension
Unknown
Apparent Declination
Unknown
Sunlit
N/A
Visualization observer readout
Local Sidereal Time
17:56:06
Azimuth
Unknown
Elevation
Unknown
Doppler factor
Unknown
Orbital elements
Apogee altitude
1,677.44 km
Perigee altitude
733.228 km
Semi-major axis
7,583.471 km
Eccentricity
0.06225
Inclination
62.2404°
RAAN
158.4495°
Arg. of periapsis
334.6697°
True anomaly
25.43251°
Mean anomaly
22.4938°
Eccentric anomaly
23.94126°
Mean motion
3.28656 °/min
Orbital period
109.54 mins
BSTAR
0.0011299

Documentation

Showing up to 5 results
|